DW9249 Weather Reports


time (UTC)temp
F
wind
direction
speed
knots
gust
knots
rain 1hr
in
rain 24hr
in
rain mn
in
humidity
%
barometer
mb
20260505194755 84 188 4.3 10.4 0.00 0.00 0.00 31 998.8
20260505194259 84 288 4.3 10.4 0.00 0.00 0.00 31 998.8
20260505193746 84 197 4.3 10.4 0.00 0.00 0.00 31 998.8
20260505193231 84 234 3.5 16.5 0.00 0.00 0.00 32 999.0
20260505192739 84 259 4.3 16.5 0.00 0.00 0.00 34 999.0
20260505192231 84 215 5.2 16.5 0.00 0.00 0.00 32 999.1
20260505191712 84 217 5.2 16.5 0.00 0.00 0.00 31 999.1
20260505191156 83 207 4.3 15.6 0.00 0.00 0.00 33 999.3
20260505190648 83 197 4.3 13.9 0.00 0.00 0.00 34 999.3
20260505190131 84 192 4.3 13.9 0.00 0.00 0.00 33 999.4
20260505185624 84 237 3.5 12.2 0.00 0.00 0.00 36 999.4
20260505185108 84 141 2.6 7.8 0.00 0.00 0.00 34 999.5
20260505184618 84 137 2.6 7.8 0.00 0.00 0.00 35 999.5
20260505184103 83 217 3.5 15.6 0.00 0.00 0.00 37 999.6
20260505183549 83 169 4.3 15.6 0.00 0.00 0.00 35 999.8
20260505183044 83 170 4.3 15.6 0.00 0.00 0.00 33 999.9
20260505182541 84 135 3.5 15.6 0.00 0.00 0.00 34 999.9
20260505182023 84 202 2.6 13.0 0.00 0.00 0.00 35 1000.0
20260505181509 83 160 1.7 13.0 0.00 0.00 0.00 36 999.9
20260505181015 83 132 3.5 13.0 0.00 0.00 0.00 36 999.9
20260505180502 83 202 4.3 13.0 0.00 0.00 0.00 36 1000.0
20260505180004 83 111 3.5 10.4 0.00 0.00 0.00 36 1000.1
20260505174841 82 173 3.5 10.4 0.00 0.00 0.00 39 1000.1
20260505174343 82 190 3.5 9.6 0.00 0.00 0.00 38 1000.1
20260505173841 83 134 2.6 10.4 0.00 0.00 0.00 38 1000.1
20260505173322 83 136 2.6 10.4 0.00 0.00 0.00 39 1000.1
20260505172821 83 200 2.6 10.4 0.00 0.00 0.00 41 1000.3
20260505171712 82 186 1.7 8.7 0.00 0.00 0.00 38 1000.2
20260505171206 82 209 2.6 10.4 0.00 0.00 0.00 39 1000.4
20260505170654 82 174 2.6 10.4 0.00 0.00 0.00 38 1000.6
20260505170146 82 105 2.6 10.4 0.00 0.00 0.00 39 1000.5
20260505165632 82 301 2.6 10.4 0.00 0.00 0.00 40 1000.7
20260505165126 81 164 2.6 8.7 0.00 0.00 0.00 38 1000.8
20260505163335 81 156 2.6 9.6 0.00 0.00 0.00 39 1000.9
20260505162823 81 168 2.6 10.4 0.00 0.00 0.00 41 1001.0
20260505162331 81 126 2.6 10.4 0.00 0.00 0.00 41 1001.1
20260505161829 81 176 1.7 10.4 0.00 0.00 0.00 42 1001.1
20260505161331 80 184 1.7 10.4 0.00 0.00 0.00 42 1001.1
20260505160821 79 178 2.6 7.8 0.00 0.00 0.00 42 1001.2
20260505153208 78 186 1.7 7.0 0.00 0.00 0.00 44 1001.7
20260505152716 78 133 1.7 7.0 0.00 0.00 0.00 44 1001.5
20260505152158 78 201 0.9 6.1 0.00 0.00 0.00 44 1001.6
20260505151654 77 302 0.0 6.1 0.00 0.00 0.00 47 1001.6
20260505151159 77 315 0.0 1.7 0.00 0.00 0.00 47 1001.6
20260505150709 76 224 0.9 7.0 0.00 0.00 0.00 48 1001.7
20260505140329 72 190 2.6 9.6 0.00 0.00 0.00 53 1002.5
20260505124547 67 210 2.6 9.6 0.00 0.00 0.00 61 1002.3
20260505123359 66 183 1.7 7.8 0.00 0.00 0.00 61 1002.0
20260505122840 66 220 2.6 7.8 0.00 0.00 0.00 62 1002.1
20260505122344 66 226 2.6 7.8 0.00 0.00 0.00 63 1002.0
20260505121826 65 192 1.7 6.1 0.00 0.00 0.00 64 1002.2
20260505120100 61 198 0.0 2.6 0.00 0.00 0.00 73 1002.2
20260505115552 60 200 0.0 0.0 0.00 0.00 0.00 82 1002.3
20260505115036 58 213 0.0 2.6 0.00 0.00 0.00 88 1002.2
20260505114546 58 205 0.0 0.0 0.00 0.00 0.00 88 1002.3
20260505114053 58 205 0.0 0.0 0.00 0.00 0.00 87 1002.1
20260505113600 58 205 0.0 0.0 0.00 0.00 0.00 86 1002.2
20260505113104 58 205 0.0 0.0 0.00 0.00 0.00 85 1002.3
20260505111940 58 205 0.0 0.0 0.00 0.00 0.00 82 1002.2
20260505111447 58 205 0.0 0.0 0.00 0.00 0.00 81 1002.2
20260505110957 58 205 0.0 0.0 0.00 0.00 0.00 81 1002.2
20260505102005 57 190 0.0 0.9 0.00 0.00 0.00 76 1002.2
20260505100821 57 190 0.0 2.6 0.00 0.00 0.00 78 1002.1
20260505095644 56 190 0.0 0.0 0.00 0.00 0.00 80 1002.1
20260505095151 55 190 0.0 0.0 0.00 0.00 0.00 81 1002.0
20260505094652 54 190 0.0 2.6 0.00 0.00 0.00 83 1002.0
20260505094156 53 190 0.0 1.7 0.00 0.00 0.00 85 1002.0
20260505093030 53 190 0.0 0.0 0.00 0.00 0.00 85 1001.6
20260505091855 53 190 0.0 0.0 0.00 0.00 0.00 84 1001.2
20260505091401 53 190 0.0 0.0 0.00 0.00 0.00 84 1001.2
20260505090900 53 190 0.0 0.0 0.00 0.00 0.00 84 1001.3
20260505090404 53 190 0.0 0.0 0.00 0.00 0.00 83 1001.3
20260505085904 53 190 0.0 0.0 0.00 0.00 0.00 83 1001.3
20260505085408 53 190 0.0 0.0 0.00 0.00 0.00 83 1001.3
20260505084912 53 190 0.0 0.0 0.00 0.00 0.00 83 1001.3
20260505084413 53 190 0.0 0.0 0.00 0.00 0.00 83 1001.3
20260505083856 53 190 0.0 0.0 0.00 0.00 0.00 82 1001.4
20260505082754 53 190 0.0 0.0 0.00 0.00 0.00 81 1001.3
20260505081640 53 190 0.0 0.0 0.00 0.00 0.00 81 1001.2
20260505081126 53 190 0.0 0.0 0.00 0.00 0.00 81 1001.2
20260505080612 53 190 0.0 0.0 0.00 0.00 0.00 82 1001.2
20260505080104 53 190 0.0 0.0 0.00 0.00 0.00 81 1001.2
20260505075559 53 190 0.0 0.0 0.00 0.00 0.00 81 1001.3
20260505075051 53 190 0.0 0.0 0.00 0.00 0.00 81 1001.3
20260505073929 54 190 0.0 0.0 0.00 0.00 0.00 80 1001.2
20260505073427 54 190 0.0 0.0 0.00 0.00 0.00 80 1001.3
20260505072922 54 190 0.0 0.0 0.00 0.00 0.00 79 1001.4
20260505071144 54 190 0.0 0.0 0.00 0.00 0.00 78 1001.2
20260505070627 54 190 0.0 0.0 0.00 0.00 0.00 78 1001.2
20260505070126 55 190 0.0 0.0 0.00 0.00 0.00 78 1001.1
20260505065633 55 190 0.0 0.0 0.00 0.00 0.00 77 1001.2
20260505065131 55 190 0.0 0.0 0.00 0.00 0.00 77 1001.2
20260505064621 55 190 0.0 0.0 0.00 0.00 0.00 77 1001.2
20260505064105 55 190 0.0 0.0 0.00 0.00 0.00 77 1001.2
20260505063608 56 190 0.0 0.0 0.00 0.00 0.00 76 1001.2
20260505063109 56 190 0.0 0.0 0.00 0.00 0.00 76 1001.2
20260505062603 56 190 0.0 1.7 0.00 0.00 0.00 77 1001.2
20260505062108 56 190 0.0 2.6 0.00 0.00 0.00 76 1001.2
20260505061553 55 190 0.0 0.0 0.00 0.00 0.00 76 1001.3
20260505061038 56 190 0.0 0.0 0.00 0.00 0.00 76 1001.2
20260505060542 56 190 0.0 0.0 0.00 0.00 0.00 76 1001.3
20260505055421 55 190 0.0 0.0 0.00 0.00 0.00 77 1001.2
20260505054908 55 190 0.0 0.0 0.00 0.00 0.00 78 1001.3
20260505054418 54 190 0.0 2.6 0.00 0.00 0.00 78 1001.4
20260505053247 54 175 0.0 0.0 0.00 0.00 0.00 77 1001.4
20260505052734 54 175 0.0 0.0 0.00 0.00 0.00 76 1001.4
20260505052243 54 175 0.0 0.0 0.00 0.00 0.00 75 1001.4
20260505051725 54 175 0.0 0.0 0.00 0.00 0.00 74 1001.4
20260505051214 55 175 0.0 0.0 0.00 0.00 0.00 74 1001.5
20260505050702 55 175 0.0 0.0 0.00 0.00 0.00 73 1001.5
20260505050145 55 175 0.0 0.0 0.00 0.00 0.00 73 1001.6
20260505040726 58 175 0.0 0.0 0.00 0.00 0.00 65 1001.7
20260505035628 59 175 0.0 0.0 0.00 0.00 0.00 63 1001.7
20260505035133 59 175 0.0 0.0 0.00 0.00 0.00 62 1001.7
20260505033336 60 175 0.0 0.0 0.00 0.00 0.00 60 1001.7
20260505031554 61 175 0.0 1.7 0.00 0.00 0.00 57 1001.7
20260505031046 61 175 0.0 0.0 0.00 0.00 0.00 57 1001.8
20260505025317 61 175 0.0 0.0 0.00 0.00 0.00 56 1001.9
20260505024207 60 175 0.0 0.0 0.00 0.00 0.00 56 1001.8
20260505023654 60 175 0.0 0.0 0.00 0.00 0.00 56 1001.8
20260505022522 60 175 0.0 0.0 0.00 0.00 0.00 55 1001.9
20260505022018 60 175 0.0 0.0 0.00 0.00 0.00 56 1001.9
20260505021515 60 175 0.0 0.0 0.00 0.00 0.00 56 1002.0
20260505021012 61 175 0.0 0.0 0.00 0.00 0.00 55 1001.9
20260505020515 61 175 0.0 0.0 0.00 0.00 0.00 55 1001.9
20260505020007 61 175 0.0 0.0 0.00 0.00 0.00 56 1001.9
20260505015454 62 175 0.0 0.0 0.00 0.00 0.00 54 1001.8
20260505014955 62 175 0.0 0.0 0.00 0.00 0.00 53 1001.8
20260505014503 63 175 0.0 0.0 0.00 0.00 0.00 53 1001.7
20260505013959 63 175 0.0 0.0 0.00 0.00 0.00 52 1001.7
20260505013448 63 175 0.0 0.0 0.00 0.00 0.00 51 1001.6
20260505012946 64 175 0.0 0.0 0.00 0.00 0.00 51 1001.7
20260505012431 64 175 0.0 0.0 0.00 0.00 0.00 48 1001.6
20260505011921 65 175 0.0 0.0 0.00 0.00 0.00 48 1001.5
20260505011404 65 175 0.0 0.0 0.00 0.00 0.00 46 1001.4
20260505010859 65 175 0.0 0.0 0.00 0.00 0.00 46 1001.3
20260505010408 66 175 0.0 0.0 0.00 0.00 0.00 45 1001.3
20260505005903 66 175 0.0 0.0 0.00 0.00 0.00 44 1001.3
20260505005345 67 175 0.0 0.0 0.00 0.00 0.00 44 1001.2
20260505004840 67 175 0.0 0.0 0.00 0.00 0.00 44 1001.2
20260505004347 67 175 0.0 0.0 0.00 0.00 0.00 44 1001.0
20260505003219 67 175 0.0 1.7 0.00 0.00 0.00 41 1001.0
20260505001425 69 174 0.0 0.0 0.00 0.00 0.00 41 1000.9
20260505000921 69 174 0.0 0.0 0.00 0.00 0.00 39 1000.8
20260505000416 69 174 0.0 2.6 0.00 0.00 0.00 39 1000.7
20260504235919 69 174 0.0 0.0 0.00 0.00 0.00 38 1000.6
20260504235419 69 172 0.0 7.0 0.00 0.00 0.00 38 1000.6
20260504234921 70 193 0.0 7.0 0.00 0.00 0.00 38 1000.5
20260504234417 70 184 0.0 7.0 0.00 0.00 0.00 37 1000.5
20260504233911 70 182 0.9 5.2 0.00 0.00 0.00 37 1000.4
20260504233358 70 153 1.7 5.2 0.00 0.00 0.00 38 1000.3
20260504232249 71 192 0.0 0.9 0.00 0.00 0.00 37 1000.1
20260504231757 71 185 0.0 0.0 0.00 0.00 0.00 37 1000.1
20260504231253 71 185 0.9 7.0 0.00 0.00 0.00 36 1000.1
20260504230742 71 220 0.9 7.0 0.00 0.00 0.00 36 1000.0
20260504225608 72 199 1.7 7.0 0.00 0.00 0.00 35 1000.0
20260504225054 72 196 0.9 7.8 0.00 0.00 0.00 35 1000.0
20260504224550 72 244 0.9 7.8 0.00 0.00 0.00 35 1000.0
20260504224055 72 171 1.7 7.8 0.00 0.00 0.00 35 1000.0
20260504223539 73 198 0.9 7.8 0.00 0.00 0.00 35 1000.1
20260504223034 73 246 0.0 0.0 0.00 0.00 0.00 36 1000.0
20260504222539 73 158 0.9 5.2 0.00 0.00 0.00 35 1000.0
20260504222021 73 221 0.9 7.0 0.00 0.00 0.00 35 1000.1
20260504221525 73 192 1.7 7.0 0.00 0.00 0.00 34 1000.1
20260504221034 73 163 1.7 7.8 0.00 0.00 0.00 34 1000.1
20260504220521 73 223 1.7 7.8 0.00 0.00 0.00 34 1000.2
20260504220012 73 181 1.7 7.8 0.00 0.00 0.00 34 1000.1
20260504215500 73 182 0.9 7.8 0.00 0.00 0.00 34 1000.3
20260504213737 73 153 0.9 7.0 0.00 0.00 0.00 35 1000.3
20260504213234 73 203 1.7 6.1 0.00 0.00 0.00 34 1000.4
20260504212718 74 198 0.9 10.4 0.00 0.00 0.00 33 1000.5
20260504212159 74 173 1.7 10.4 0.00 0.00 0.00 35 1000.5
20260504211646 73 155 2.6 11.3 0.00 0.00 0.00 34 1000.5
20260504211129 73 209 2.6 11.3 0.00 0.00 0.00 33 1000.5
20260504210019 73 319 3.5 11.3 0.00 0.00 0.00 33 1000.6
20260504205500 74 261 1.7 10.4 0.00 0.00 0.00 33 1000.5
20260504204954 74 260 2.6 7.8 0.00 0.00 0.00 34 1000.4
20260504204457 74 211 2.6 7.8 0.00 0.00 0.00 32 1000.4
20260504203958 74 202 1.7 9.6 0.00 0.00 0.00 32 1000.4
20260504202834 74 190 4.3 10.4 0.00 0.00 0.00 33 1000.5
20260504202321 74 161 3.5 10.4 0.00 0.00 0.00 32 1000.6
20260504201831 74 161 1.7 11.3 0.00 0.00 0.00 33 1000.6
20260504200658 73 161 2.6 11.3 0.00 0.00 0.00 33 1000.7
20260504200153 74 254 1.7 11.3 0.00 0.00 0.00 32 1000.7
20260504195647 74 148 2.6 8.7 0.00 0.00 0.00 32 1000.6
20260504195153 74 203 3.5 8.7 0.00 0.00 0.00 33 1000.7